CST,Max TemperatureF,Mean TemperatureF,Min TemperatureF,Max Dew PointF,MeanDew PointF,Min DewpointF,Max Humidity, Mean Humidity, Min Humidity, Max Sea Level PressureIn, Mean Sea Level PressureIn, Min Sea Level PressureIn, Max VisibilityMiles, Mean VisibilityMiles, Min VisibilityMiles, Max Wind SpeedMPH, Mean Wind SpeedMPH, Max Gust SpeedMPH,PrecipitationIn, CloudCover, Events, WindDirDegrees
2014-1-1,72,54,37,52,39,28,86,60,44,30.30,30.17,30.04,10,10,10,21,9,32,0.00,0,,170
2014-1-2,50,40,30,32,21,17,67,49,28,30.57,30.49,30.28,10,10,10,20,14,26,0.00,0,,325
2014-1-3,55,40,26,31,20,16,81,49,21,30.56,30.40,30.18,10,10,10,15,5,29,0.00,0,,143
2014-1-4,72,58,43,54,43,30,89,61,41,30.14,29.99,29.85,10,10,10,18,11,28,0.00,1,,161
2014-1-5,60,46,30,54,25,14,80,51,32,30.59,30.23,29.81,10,10,10,28,16,36,0.00,0,,316
2014-1-6,34,26,18,12,6,1,57,43,27,30.88,30.76,30.61,10,10,10,15,10,22,0.00,0,,339
2014-1-7,48,34,21,22,9,4,68,37,17,30.71,30.56,30.30,10,10,10,16,7,23,0.00,3,,157
2014-1-8,54,46,39,52,44,27,94,85,53,30.39,30.24,30.13,10,7,2,16,10,23,0.03,8,,140
2014-1-9,63,56,51,61,54,50,100,91,77,30.26,30.12,29.99,10,5,0,12,2,17,0.01,8,Fog,103
2014-1-10,75,67,57,61,58,53,94,75,48,30.04,29.91,29.81,10,10,10,21,11,30,0.00,5,,176
2014-1-11,73,59,45,50,32,19,93,47,14,30.25,30.14,29.94,10,10,8,8,4,,0.00,0,,279
2014-1-12,70,58,46,58,42,30,80,53,29,30.17,30.06,29.94,10,10,10,22,10,33,0.00,1,,160
2014-1-13,69,56,42,59,30,14,86,41,12,30.22,30.10,29.85,10,10,10,24,12,32,0.00,1,,287
2014-1-14,71,54,36,31,22,16,64,34,13,30.45,30.22,30.09,10,10,10,21,6,24,0.00,0,,289
2014-1-15,63,51,39,27,21,16,51,35,19,30.54,30.40,30.23,10,10,10,14,9,22,0.00,0,,286
2014-1-16,72,56,39,32,26,22,55,36,18,30.32,30.20,30.14,10,10,10,14,5,20,0.00,0,,271
2014-1-17,61,52,39,30,19,15,53,32,17,30.48,30.38,30.32,10,10,10,14,6,16,0.00,2,,341
2014-1-18,70,54,39,39,30,20,61,42,28,30.32,30.26,30.17,10,10,10,17,6,26,0.00,0,,194
2014-1-19,70,54,39,34,25,20,58,34,15,30.42,30.30,30.17,10,10,10,9,6,,0.00,0,,220
2014-1-20,81,64,48,46,32,23,62,34,14,30.29,30.08,29.92,10,10,10,17,9,25,0.00,0,,224
2014-1-21,59,50,39,28,22,19,58,35,21,30.53,30.41,30.31,10,10,10,17,11,25,0.00,0,,319
2014-1-22,70,52,35,35,26,22,70,40,16,30.29,30.18,30.08,10,10,10,12,5,,0.00,0,,141
2014-1-23,51,38,24,37,24,15,81,61,37,30.84,30.51,30.09,10,8,2,20,11,33,0.07,7,Rain-Snow,354
2014-1-24,39,32,26,19,11,5,61,44,32,30.84,30.68,30.43,10,10,10,13,7,,0.00,5,Snow,277
2014-1-25,66,47,28,31,24,20,69,41,19,30.40,30.23,30.09,10,10,10,9,4,,0.00,0,,230
2014-1-26,82,64,46,43,34,24,71,39,19,30.05,29.89,29.73,10,10,10,14,4,28,0.01,1,,186
2014-1-27,53,43,30,31,13,-1,48,30,20,30.38,30.20,29.89,10,10,10,23,13,33,0.00,1,Rain,338
2014-1-28,41,34,26,16,7,-1,58,36,19,30.57,30.49,30.36,10,10,10,15,11,22,0.01,3,,336
2014-1-29,46,36,25,17,12,9,72,41,22,30.57,30.47,30.31,10,10,10,12,5,17,0.00,0,,144
2014-1-30,61,46,30,50,35,16,83,61,50,30.30,30.07,29.91,10,10,10,24,13,36,0.00,3,,155
2014-1-31,79,67,55,59,53,50,84,67,36,30.00,29.91,29.80,10,10,10,18,14,30,0.00,4,,158